Regional Weather Roundup
Issued by NWS

Home | Current Version | Previous Version | Graphics & Text | Print | Product List | Glossary On
Versions: 1 2 3 4 5 6 7 8 9 10 11 12 13 14 15 16 17 18 19 20 21 22 23 24 25 26 27 28 29 30 31 32 33 34 35 36 37 38 39 40 41 42 43 44 45 46 47 48 49 50
000
ASUS43 KIND 280609
RWRIN

WEATHER ROUNDUP FOR INDIANA
NATIONAL WEATHER SERVICE INDIANAPOLIS IN
100 AM EST SUN DEC 28 2014

NOTE: "FAIR" INDICATES FEW OR NO CLOUDS BELOW 12,000 FEET WITH NO
SIGNIFICANT WEATHER AND/OR OBSTRUCTIONS TO VISIBILITY.

* - STATION DOES NOT REPORT WEATHER SUCH AS PRECIPITATION OR FOG.

+ - STATION NOT QUALITY CONTROLLED BY THE NATIONAL WEATHER SERVICE.
    USE DATA WITH CAUTION...ESPECIALLY DEWPOINT AND RELATIVE
    HUMIDITY OBSERVATIONS.

INZ001>003-010>013-019-020-280700-
NORTHWEST INDIANA

CITY           SKY/WX    TMP DP  RH WIND       PRES   REMARKS
GARY /AIRPORT/ CLOUDY    34  23  64 W13       30.10S WCI  25
KNOX *+        CLOUDY    33  26  75 W7        30.08S WCI  27
LA PORTE +     CLOUDY    35  28  76 NW7       30.08S WCI  29
6HR MIN TEMP:  35; 6HR MAX TEMP:  38;

MICHIGAN CITY+ CLOUDY    34  23  64 W6        30.07F WCI  29
MONTICELLO +   CLOUDY    32  28  86 NW9       30.09F WCI  24
RENSSELAER +   CLOUDY    32  32 100 W8        30.11S WCI  25
VALPARAISO     CLOUDY    33  25  72 NW8       30.08F WCI  26
6HR MIN TEMP:  33; 6HR MAX TEMP:  35;


$$

LMZ046-743>745-280700-
SOUTHERN LAKE MICHIGAN

STATION/POSITION TIME  TEMP WIND        PRES
                       AIR  DIR/SP/G
                 (UTC) (F)  (DEG/KT/KT) (MB)
MICHIGAN CITY    0600   35  280/ 13/ 16   N/A

$$

INZ004-005-014>016-021>024-280700-
NORTH CENTRAL INDIANA

CITY           SKY/WX    TMP DP  RH WIND       PRES   REMARKS
GOSHEN         CLOUDY    34  29  82 W12       30.05S WCI  25
6HR MIN TEMP:  34; 6HR MAX TEMP:  38; 6HR PCP: TRACE;

LOGANSPORT +   CLOUDY    32  28  86 NW6       30.09F WCI  26
PERU/GRISSOM   CLOUDY    33  33 100 NW10      30.07F WCI  24
6HR MIN TEMP:  33; 6HR MAX TEMP:  39; 6HR PCP:  0.08;

ROCHESTER +    CLOUDY    36  32  87 W8        30.08F
SOUTH BEND     CLOUDY    35  28  75 W8        30.06F WCI  29
6HR MIN TEMP:  35; 6HR MAX TEMP:  38;

WARSAW +       CLOUDY    32  30  93 W9        30.06F WCI  24

$$

INZ006>009-017-018-025>027-280700-
NORTHEAST INDIANA

CITY           SKY/WX    TMP DP  RH WIND       PRES   REMARKS
ANGOLA *+      CLOUDY    34  28  80 W8        30.02S WCI  27
AUBURN +       CLOUDY    34  32  93 W6        30.04F WCI  29
FORT WAYNE     CLOUDY    33  32  96 W8        30.05F WCI  26
6HR MIN TEMP:  32; 6HR MAX TEMP:  43; 6HR PCP:  0.17;

HUNTINGTON +   CLOUDY    32  28  85 W5        30.05F WCI  28
6HR MIN TEMP:  32; 6HR MAX TEMP:  41; 6HR PCP:  0.06;


$$

INZ028-029-035-036-043>045-051>053-280700-
WEST CENTRAL INDIANA

CITY           SKY/WX    TMP DP  RH WIND       PRES   REMARKS
GREENCASTLE +  CLOUDY    32  28  86 NW7       30.11S WCI  26
LAFAYETTE      CLOUDY    31  27  85 NW14G21   30.11F WCI  21
6HR MIN TEMP:  31; 6HR MAX TEMP:  37; 6HR PCP:  0.07;

TERRE HAUTE    CLOUDY    34  30  85 N10       30.13S WCI  26
6HR MIN TEMP:  34; 6HR MAX TEMP:  40; 6HR PCP:  0.18;


$$

INZ030>032-037>040-046>048-054>057-064-065-280700-
CENTRAL INDIANA

CITY           SKY/WX    TMP DP  RH WIND       PRES   REMARKS
CP ATTERBURY + LGT RAIN  37  36  93 MISG      30.09F
FRANKFORT +    CLOUDY    32  32 100 W12       30.10F WCI  23
INDIANAPOLIS   CLOUDY    33  31  92 NW8       30.09F WCI  26
6HR MIN TEMP:  33; 6HR MAX TEMP:  45; 6HR PCP:  0.14;

-EAGLE CREEK   CLOUDY    33  31  92 NW12      30.09F WCI  24
6HR MIN TEMP:  33; 6HR MAX TEMP:  42; 6HR PCP:  0.11;

KOKOMO *+      CLOUDY    32  27  80 NW13G18   30.07F WCI  22
MARION +       CLOUDY    32  32  99 NW10      30.07F WCI  24
MT COMFORT *+  CLOUDY    34  34 100 NW8       30.08F WCI  27
SHELBYVILLE    LGT RAIN  38  34  85 NW14      30.08S
6HR MIN TEMP:  38; 6HR MAX TEMP:  47; 6HR PCP:  0.32;

ZIONSVILLE +   CLOUDY    33  30  88 NW9       30.09F WCI  25
6HR MIN TEMP:  33; 6HR MAX TEMP:  42; 6HR PCP:  0.14;


$$

INZ033-034-041-042-049-050-058-059-280700-
EAST CENTRAL INDIANA

CITY           SKY/WX    TMP DP  RH WIND       PRES   REMARKS
MUNCIE         CLOUDY    34  32  92 W9        30.06S WCI  27
6HR MIN TEMP:  34; 6HR MAX TEMP:  46; 6HR PCP:  0.15;


$$

INZ060-061-067>069-081>083-085>088-280700-
SOUTHWEST INDIANA

CITY           SKY/WX    TMP DP  RH WIND       PRES   REMARKS
EVANSVILLE     CLOUDY    40  35  83 NW9       30.14R
6HR MIN TEMP:  40; 6HR MAX TEMP:  50; 6HR PCP:  0.21;

HUNTINGBURG *+ CLOUDY    39  36  87 N12G18    30.12R
6HR MIN TEMP:  39; 6HR MAX TEMP:  46; 6HR PCP:  0.10;

WASHINGTON +   CLOUDY    37  33  87 N9        30.11F
6HR MIN TEMP:  37; 6HR MAX TEMP:  47; 6HR PCP:  0.17;


$$

INZ062-063-066-070>080-084-089>092-280700-
SOUTH CENTRAL AND SOUTHEAST INDIANA

CITY           SKY/WX    TMP DP  RH WIND       PRES   REMARKS
BLOOMINGTON    CLOUDY    36  34  92 NW5       30.09F
6HR MIN TEMP:  36; 6HR MAX TEMP:  47; 6HR PCP:  0.33;


$$




USA.gov is the U.S. government's official web portal to all federal, state and local government web resources and services.